TimePDT,TemperatureF,Dew PointF,Humidity,Sea Level PressureIn,VisibilityMPH,Wind Direction,Wind SpeedMPH,Gust SpeedMPH,PrecipitationIn,Events,Conditions,WindDirDegrees,DateUTC
12:53 AM,53.1,41.0,64,29.84,10.0,Calm,Calm,-,N/A,,Mostly Cloudy,0,2012-10-22 07:53:00
1:53 AM,54.0,42.1,64,29.84,10.0,Calm,Calm,-,N/A,,Overcast,0,2012-10-22 08:53:00
2:53 AM,57.9,39.9,51,29.85,10.0,Calm,Calm,-,N/A,,Overcast,0,2012-10-22 09:53:00
3:53 AM,57.0,41.0,55,29.85,10.0,ENE,3.5,-,0.00,Rain,Light Rain,70,2012-10-22 10:53:00
4:53 AM,55.0,45.0,69,29.85,10.0,Calm,Calm,-,0.00,,Overcast,0,2012-10-22 11:53:00
5:53 AM,55.0,46.0,72,29.87,10.0,Calm,Calm,-,N/A,,Overcast,0,2012-10-22 12:53:00
7:53 AM,55.9,43.0,62,29.89,10.0,Calm,Calm,-,N/A,,Overcast,0,2012-10-22 14:53:00
8:53 AM,54.0,48.9,83,29.94,7.0,East,5.8,-,0.02,Rain,Light Rain,100,2012-10-22 15:53:00
9:53 AM,55.9,50.0,80,29.96,7.0,Calm,Calm,-,0.02,Rain,Light Rain,0,2012-10-22 16:53:00
10:53 AM,57.0,48.9,74,29.97,9.0,South,3.5,-,0.02,Rain,Light Rain,190,2012-10-22 17:53:00
3:53 PM,61.0,53.1,75,29.92,10.0,East,8.1,-,N/A,,Overcast,100,2012-10-22 22:53:00
4:53 PM,61.0,53.1,75,29.92,4.0,ESE,5.8,-,0.01,Rain,Light Rain,110,2012-10-22 23:53:00
6:53 PM,57.0,50.0,77,29.96,-9999.0,NW,15.0,-,N/A,,Unknown,320,2012-10-23 01:53:00
7:24 PM,55.4,50.0,82,29.96,10.0,North,5.8,-,N/A,,Mostly Cloudy,350,2012-10-23 02:24:00
7:35 PM,55.4,50.0,82,29.96,10.0,North,4.6,-,N/A,,Mostly Cloudy,350,2012-10-23 02:35:00
7:53 PM,54.0,50.0,86,29.97,10.0,North,5.8,-,N/A,,Mostly Cloudy,10,2012-10-23 02:53:00
8:28 PM,53.6,50.0,88,29.97,10.0,North,3.5,-,N/A,,Mostly Cloudy,360,2012-10-23 03:28:00
8:53 PM,54.0,48.9,83,29.98,10.0,North,4.6,-,N/A,,Mostly Cloudy,10,2012-10-23 03:53:00
9:53 PM,51.1,48.0,89,29.99,10.0,NW,3.5,-,N/A,,Clear,320,2012-10-23 04:53:00
11:53 PM,48.0,46.0,93,30.00,10.0,Calm,Calm,-,N/A,,Clear,0,2012-10-23 06:53:00